sat.trackr.live / text

‹ back to catalog

UNKNOWN

NORAD 82494

UNKNOWN UNKNOWN UNKNOWN

§ Identity

Operator
Country
Launch date
Launch site
Launch vehicle
Mass (kg)
RCS (m²)

External: N2YO · Heavens-Above

§ Orbital elements

Epoch: 2026-09-16T05:29:39.842304Z

Period
96.27 min
Inclination
74.0036°
Eccentricity
0.0009108
Mean motion
14.95813308 rev/d
Perigee alt
573.5 km
Apogee alt
586.2 km
Semi-major
6,958.0 km
B*
1.4976e-3
RAAN
184.2703°
Arg perigee
245.6492°
Mean anomaly
114.3742°
Rev number
12,633

§ Raw data

UNKNOWN1 82494U          26259.22893336  .00016738  00000+0  14976-2 0  99902 82494  74.0036 184.2703 0009108 245.6492 114.3742 14.95813308126333

JSON: /api/v1/satellites/82494 · /tle

For live sub-satellite position, see the globe view (requires WebGL).

§ Visibility from observer

Set your observer location to see the next 7 days of passes ≥ 10°. The values pass through the URL so the page stays shareable.

No JS? Fill the form by hand. The geolocation button needs JavaScript.